Lid_Strength_Index
2 2 1 1 1 1 1 2 2 1 2 1 1 1 1 1 1 1 1 1 2 2 1 1 2 1 2 2 3 4 3 3 4 4 2 1 2 1 1 1 0 1 1
2 2 2 1 1 1 1 1 2 2 1 1 1 1 1 1 1 1 1 1 2 2 2 2 2 1 2 2 4 4 3 3 4 4 3 3 2 2 1 1 1 -0 0
2 2 2 2 2 2 1 1 1 1 1 2 1 1 1 1 1 1 1 1 2 2 1 1 2 2 2 3 5 4 2 2 3 4 3 2 2 2 2 2 1 1 0
2 2 2 2 2 2 1 1 1 1 1 1 1 1 1 1 1 1 1 1 1 1 1 1 2 2 2 3 4 4 2 3 3 4 4 3 3 3 2 3 3 2 2
2 2 2 2 1 1 1 1 1 1 1 1 2 1 1 1 1 1 1 1 1 2 2 2 2 1 2 3 3 4 2 3 4 3 4 4 5 4 4 3 4 3 3
2 2 2 2 2 2 2 1 1 1 1 1 1 2 1 1 2 2 1 1 1 1 2 2 1 2 3 3 3 2 2 4 5 4 5 5 4 3 3 3 3 3 4
2 2 2 2 2 2 2 2 2 2 1 2 1 1 2 1 3 3 2 1 1 1 2 2 2 1 3 4 3 2 2 1 2 4 4 4 4 3 4 5 4 3 3
3 3 3 3 2 2 2 2 2 2 2 2 2 1 1 1 3 4 3 1 1 1 1 2 2 3 4 4 4 4 2 3 3 3 4 5 5 5 6 4 4 3 2
3 3 3 2 2 3 3 2 2 2 2 2 2 2 2 2 5 5 4 1 1 2 2 2 2 4 6 4 2 4 5 5 4 4 4 4 4 3 3 5 4 5 5
3 3 2 2 2 2 3 3 2 2 2 2 2 1 2 2 6 6 5 1 2 5 7 5 5 7 6 6 5 5 7 7 7 7 7 6 5 5 4 5 4 5 5
2 2 2 2 2 2 2 2 3 3 2 2 2 3 2 3 6 8 8 2 3 6 7 8 8 7 7 8 7 7 7 8 6 7 7 7 7 7 7 5 5 5 6
2 2 2 2 2 2 2 2 2 2 3 3 5 8 9 8 9 10 9 8 6 6 8 7 8 9 9 8 7 7 7 6 7 8 9 9 9 8 6 6 5 5 5
3 3 3 2 3 7 5 3 3 2 3 4 7 9 10 8 8 10 9 8 8 7 7 7 8 8 8 6 6 7 6 8 8 8 9 10 8 6 6 6 5 6 6
3 3 3 5 7 11 10 10 7 3 3 6 9 10 10 9 8 8 7 8 7 7 6 6 6 6 6 6 7 6 6 7 8 8 9 8 7 7 7 6 7 7 7
3 3 6 8 10 13 14 15 14 10 9 8 8 10 9 8 9 9 8 7 7 7 7 6 7 7 7 7 6 7 6 6 7 8 8 7 7 6 6 6 7 7 8
3 6 7 8 9 10 11 12 14 16 15 15 14 10 10 11 12 13 13 13 11 10 8 7 6 7 7 7 7 8 8 7 8 7 8 6 6 7 7 6 6 7 7
5 6 7 8 9 9 10 8 9 12 15 15 16 15 14 14 14 15 15 13 13 9 7 7 6 6 7 7 9 8 9 8 8 7 8 6 6 6 6 6 6 6 7
6 8 7 8 9 9 10 11 9 9 12 13 15 14 15 15 14 14 14 11 7 7 6 5 6 6 10 9 9 9 9 7 7 8 8 8 8 7 7 6 6 6 6
5 7 8 9 9 10 10 10 11 12 12 12 11 12 12 12 13 13 10 7 7 7 7 6 8 9 8 9 9 7 7 7 8 8 8 8 7 7 6 6 6 6 5
6 6 7 7 8 9 9 9 9 10 9 9 9 10 10 10 8 9 8 8 7 7 8 8 9 9 9 7 7 7 7 8 8 8 8 8 7 6 6 6 6 6 6
5 5 5 6 7 7 8 8 8 8 9 9 9 9 11 8 8 9 8 7 8 8 8 9 7 6 6 6 6 7 8 9 9 9 8 8 7 7 7 6 6 6 6
5 6 5 6 6 6 6 6 8 8 8 9 10 10 12 8 8 9 9 8 7 6 6 5 5 6 6 6 6 8 9 9 9 9 9 8 8 8 7 6 6 6 5
6 7 7 7 6 6 7 8 8 8 8 9 9 9 9 9 10 8 7 6 5 6 6 5 5 6 6 6 7 8 9 9 9 9 9 9 9 8 7 7 6 6 4
6 6 6 7 6 7 7 7 7 8 7 7 7 7 8 8 7 6 5 5 5 5 5 5 5 5 6 7 8 9 9 10 10 10 9 10 9 8 7 6 6 5 5
6 7 7 7 7 8 7 7 6 6 6 5 5 5 5 5 5 5 5 6 6 6 6 6 6 5 5 7 8 9 10 10 9 10 10 8 7 6 6 6 5 5 6
7 7 6 6 6 5 5 6 6 5 5 5 6 6 5 5 5 6 6 6 6 6 6 6 6 6 5 6 7 10 13 11 10 12 11 7 5 6 7 6 5 5 5